Home   Weather   Karur   Past weeks

Flag for India Past Weather in Karur, Tamil Nadu, India — Yesterday and Last 2 Weeks

79 °F

Passing clouds.

Feels Like: 82 °F
Forecast: 74 / 95 °F
Wind: No wind

Location: Tiruchchirapalli

Current Time: Oct 26, 2016 at 6:02:04 AM

Latest Report: Oct 26, 2016 at 5:30 AM

Visibility: 2 mi

Pressure: 29.74 "Hg

Humidity: 84%

Dew Point: 73 °F

Location of KarurLocation

Past Weather in Karur — Graph


Karur Temperature Yesterday

Maximum temperature yesterday: 93 °F (at 2:00 PM)
Minimum temperature yesterday: 77 °F (at 2:30 AM)
Average temperature yesterday: 84 °F

High & Low Weather Summary for the Past Weeks

High99 °F (Oct 11, 2:30 PM)100% (Oct 13, 6:00 AM)29.89 "Hg (Oct 13, 6:00 AM)
Low75 °F (Oct 12, 11:30 PM)39% (Oct 11, 2:30 PM)29.62 "Hg (Oct 19, 4:00 PM)
Average84 °F69%29.78 "Hg
* Reported Oct 11 4:30 AM — Oct 26 4:30 AM, Karur, Weather by CustomWeather, © 2016

Note: Actual official high and low records may vary slightly from our data, if they occured in-between our weather recording intervals... More about our weather records


Karur Weather History for the Previous 24 Hours

Scroll right to see more
Time TempWeatherWind HumidityBarometerVisibility
4:30 AM
Wed, Oct 26
77 °FPassing clouds.No wind83%29.74 "Hg2 mi
3:30 AM77 °FHaze.No wind83%29.74 "Hg2 mi
3:00 AM77 °FHaze.No wind83%29.74 "Hg2 mi
2:30 AM77 °FHaze.No wind83%29.74 "Hg2 mi
2:00 AM81 °FHaze.No wind79%29.74 "Hg2 mi
1:30 AM81 °FHaze.No wind79%29.77 "Hg2 mi
1:00 AM81 °FHaze.No wind79%29.77 "Hg2 mi
12:30 AM81 °FHaze.No wind79%29.77 "Hg2 mi
12:00 AM81 °FHaze.No wind79%29.80 "Hg2 mi
11:30 PM
Tue, Oct 25
82 °FHaze.No wind74%29.80 "Hg2 mi
11:00 PM82 °FHaze.5 mph74%29.80 "Hg2 mi
10:30 PM82 °FHaze.5 mph74%29.80 "Hg2 mi
10:00 PM82 °FHaze.5 mph70%29.80 "Hg2 mi
9:30 PM82 °FHaze.6 mph70%29.80 "Hg2 mi
9:00 PM84 °FHaze.7 mph66%29.80 "Hg2 mi
8:30 PM84 °FHaze.9 mph62%29.80 "Hg2 mi
8:00 PM86 °FHaze.10 mph59%29.80 "Hg2 mi
7:30 PM86 °FHaze.5 mph59%29.77 "Hg2 mi
7:00 PM88 °FHaze.5 mph55%29.74 "Hg2 mi
6:30 PM88 °FHaze.6 mph55%29.71 "Hg2 mi
6:00 PM90 °FHaze.5 mph52%29.71 "Hg2 mi
5:30 PM90 °FHaze.6 mph49%29.71 "Hg2 mi
5:00 PM90 °FHaze.6 mph46%29.68 "Hg2 mi
4:30 PM91 °FHaze.5 mph44%29.68 "Hg2 mi
4:00 PM93 °FHaze.5 mph44%29.68 "Hg2 mi
3:30 PM93 °FHaze.3 mph44%29.68 "Hg2 mi
3:00 PM93 °FHaze.6 mph44%29.71 "Hg2 mi
2:30 PM93 °FHaze.3 mph41%29.71 "Hg2 mi
2:00 PM93 °FScattered clouds.3 mph41%29.74 "Hg3 mi
1:30 PM91 °FScattered clouds.5 mph44%29.74 "Hg3 mi
1:00 PM91 °FScattered clouds.6 mph44%29.74 "Hg2 mi
12:30 PM90 °FScattered clouds.6 mph46%29.77 "Hg2 mi
12:00 PM90 °FScattered clouds.7 mph46%29.80 "Hg2 mi
11:30 AM88 °FScattered clouds.2 mph49%29.80 "Hg2 mi
11:00 AM84 °FScattered clouds.3 mph70%29.83 "Hg2 mi
10:30 AM82 °FScattered clouds.7 mph74%29.83 "Hg2 mi
10:00 AM82 °FScattered clouds.7 mph74%29.86 "Hg2 mi
9:30 AM81 °FFog.7 mph79%29.86 "Hg1 mi
9:00 AM81 °FFog.7 mph79%29.86 "Hg1 mi
8:30 AM79 °FFog.5 mph84%29.86 "Hg1 mi
8:00 AM79 °FFog.5 mph84%29.86 "Hg1 mi
7:30 AM79 °FFog.5 mph84%29.83 "Hg1 mi
7:00 AM77 °FFog.2 mph89%29.83 "Hg1 mi
6:30 AM77 °FFog.2 mph89%29.80 "Hg1 mi
6:00 AM77 °FFog.No wind89%29.80 "Hg1 mi
Weather by CustomWeather, © 2016

See weather overviewHow to use our weather pages